Content
SEND FEEDBACK

Daily
Averages
Monthly
Summary
United States of America

TAMUNING, GUAM


Home > North America > United States > Guam
Elevation: 76 meters     Latitude: 13 29N     Longitude: 144 47E

WEATHER
 
SELECT A DAY
Number of Records: 342,429;   Date Range: 1/1/95 - 9/3/14
 
SHARE

PRINT THIS DATA

[ ← Previous Day ]
WEATHER ALMANAC - 5 FEBRUARY, 2013
[ Next Day → ]
[ °F ]   °C
Weather ElementAverageHighLow
Temperature25.8 °C29 °C (12:58 pm)23 °C (2:56 am)
Dewpoint22 °C23 °C (5:27 am)20.9 °C (6:55 pm)
Humidity79.7 %94 % (2:56 am)66 % (12:58 pm)
Barometer1013.2 hPa1015.6 hPa (8:55 am)1010.8 hPa (3:55 pm)
Wind Speed26.4 km/h35.2 km/h (12:55 pm)
Wind Gust44.4 km/h (12:48 pm)
Weather ElementAverage
Visibility15.8 km
Wind DirectionENE (63.5 °)

Weather ElementTotal
Precipitation1.52 mm
Cooling Degree Days7.7 (Base 18.3)
Growing Degree Days16 (Base 10)
Averaged from 89 records on 5 February, 2013
WEATHER CONDITIONS BREAKOUT
WIND DIRECTION BREAKOUT
WEATHER BY HOUR - 5 FEBRUARY, 2013
[ °F ]   °C
Local TimeTemperatureDewpointHumidityBarometerVisibilityWind DirectionWind SpeedGust SpeedPrecipitationEventsConditions
12:29 AM25 °C22 °C83 %1014.6 hPa16.1 kmENE (60°)18.5 km/hScattered Clouds
12:40 AM25 °C22 °C83 %1014.6 hPa16.1 kmENE (60°)18.5 km/hMostly Cloudy
12:45 AM25 °C22 °C83 %1014.6 hPa16.1 kmENE (70°)20.4 km/hMostly Cloudy
12:55 AM24.9 °C21.7 °C82 %1014.6 hPa16.1 kmENE (70°)16.7 km/hPartly Cloudy
1:17 AM25 °C22 °C83 %1014.6 hPa16.1 kmENE (60°)20.4 km/hMostly Cloudy
1:24 AM25 °C22 °C83 %1014.6 hPa16.1 kmENE (60°)18.5 km/hScattered Clouds
1:29 AM25 °C22 °C83 %1014.6 hPa16.1 kmENE (60°)24.1 km/hMostly Cloudy
1:41 AM25 °C22 °C83 %1014.2 hPa16.1 kmENE (70°)20.4 km/hMostly Cloudy
1:55 AM25.1 °C22.2 °C84 %1014.2 hPa16.1 kmENE (60°)22.2 km/hMostly Cloudy
2:23 AM25 °C22 °C83 %1013.9 hPa16.1 kmENE (60°)22.2 km/hMostly Cloudy
2:24 AM25 °C22 °C83 %1013.9 hPa16.1 kmENE (60°)22.2 km/hMostly Cloudy
2:26 AM25 °C22 °C83 %1013.9 hPa16.1 kmEast (80°)24.1 km/hMostly Cloudy
2:27 AM25 °C22 °C83 %1013.9 hPa16.1 kmEast (80°)25.9 km/hMostly Cloudy
2:39 AM25 °C22 °C83 %1013.9 hPa16.1 kmEast (80°)29.6 km/hMostly Cloudy
2:46 AM24 °C22 °C89 %1014.2 hPa14.5 kmENE (70°)24.1 km/hRainLight Rain
2:55 AM23.5 °C22 °C91 %1013.9 hPa12.9 kmENE (70°)14.8 km/h0 mmRainLight Rain
2:56 AM23 °C22 °C94 %1013.9 hPa12.9 kmENE (70°)16.7 km/hOvercast
2:57 AM23 °C22 °C94 %1013.9 hPa12.9 kmENE (70°)18.5 km/hLight Drizzle
2:59 AM23 °C22 °C94 %1013.9 hPa8 kmEast (80°)20.4 km/hRainHeavy Rain
3:15 AM23 °C22 °C94 %1013.9 hPa11.3 kmESE (110°)14.8 km/hRainLight Rain
3:18 AM24 °C22 °C89 %1013.9 hPa12.9 kmEast (90°)9.3 km/hRainLight Rain
3:33 AM24 °C22 °C89 %1013.5 hPa16.1 kmENE (60°)24.1 km/hLight Drizzle
3:36 AM24 °C22 °C89 %1013.5 hPa16.1 kmENE (60°)20.4 km/hMostly Cloudy
3:41 AM25 °C22 °C83 %1013.5 hPa16.1 kmENE (60°)24.1 km/hMostly Cloudy
3:55 AM24.5 °C22.6 °C89 %1013.5 hPa16.1 kmENE (60°)24.1 km/h1.52 mmOvercast
4:13 AM25 °C22 °C83 %1013.5 hPa16.1 kmENE (70°)25.9 km/hMostly Cloudy
4:51 AM25 °C22 °C83 %1013.5 hPa16.1 kmENE (60°)22.2 km/hMostly Cloudy
4:55 AM24.8 °C22.5 °C87 %1013.5 hPa16.1 kmENE (70°)24.1 km/hMostly Cloudy
5:27 AM25 °C23 °C89 %1013.9 hPa16.1 kmENE (60°)22.2 km/h37 km/hRainLight Rain
5:34 AM25 °C23 °C89 %1013.9 hPa16.1 kmENE (70°)27.8 km/h37 km/hLight Drizzle
5:36 AM25 °C23 °C89 %1013.9 hPa16.1 kmENE (70°)25.9 km/h37 km/hLight Drizzle
5:38 AM25 °C23 °C89 %1013.9 hPa16.1 kmENE (60°)25.9 km/h37 km/hOvercast
5:51 AM25 °C22 °C83 %1014.2 hPa16.1 kmENE (70°)25.9 km/hScattered Clouds
5:55 AM24.6 °C22.3 °C87 %1014.2 hPa16.1 kmENE (70°)22.2 km/h0 mmScattered Clouds
5:59 AM25 °C22 °C83 %1014.2 hPa16.1 kmENE (70°)27.8 km/hMostly Cloudy
6:00 AM25 °C23 °C89 %1014.2 hPa16.1 kmENE (70°)24.1 km/hMostly Cloudy
6:55 AM24.7 °C22.1 °C85 %1014.6 hPa16.1 kmENE (60°)27.8 km/hPartly Cloudy
7:06 AM25 °C22 °C83 %1014.6 hPa16.1 kmENE (60°)27.8 km/hMostly Cloudy
7:08 AM25 °C22 °C83 %1014.9 hPa16.1 kmENE (60°)29.6 km/hScattered Clouds
7:22 AM25 °C22 °C83 %1014.9 hPa16.1 kmENE (70°)24.1 km/h37 km/hMostly Cloudy
7:35 AM25 °C22 °C83 %1015.2 hPa16.1 kmENE (60°)22.2 km/hScattered Clouds
7:40 AM26 °C22 °C78 %1015.2 hPa16.1 kmENE (60°)25.9 km/hMostly Cloudy
7:42 AM26 °C22 °C78 %1015.2 hPa16.1 kmENE (60°)29.6 km/hMostly Cloudy
7:43 AM26 °C22 °C78 %1015.2 hPa16.1 kmENE (60°)27.8 km/hMostly Cloudy
8:10 AM26 °C22 °C78 %1015.2 hPa16.1 kmENE (60°)27.8 km/hScattered Clouds
8:55 AM26.2 °C22.5 °C80 %1015.6 hPa16.1 kmENE (70°)27.8 km/h35.2 km/hScattered Clouds
8:57 AM26 °C23 °C83 %1015.2 hPa16.1 kmEast (80°)29.6 km/h35.2 km/hMostly Cloudy
9:55 AM27.5 °C22.1 °C72 %1015.2 hPa16.1 kmEast (80°)31.5 km/h40.7 km/hMostly Cloudy
9:58 AM28 °C22 °C70 %1015.2 hPa16.1 kmENE (70°)25.9 km/h40.7 km/hScattered Clouds
10:55 AM28.1 °C22.2 °C70 %1014.2 hPa16.1 kmENE (60°)31.5 km/hScattered Clouds
11:47 AM28 °C23 °C74 %1013.5 hPa16.1 kmENE (60°)29.6 km/hMostly Cloudy
11:49 AM28 °C23 °C74 %1013.5 hPa16.1 kmENE (60°)33.3 km/hScattered Clouds
11:55 AM28.3 °C22.6 °C71 %1013.2 hPa16.1 kmENE (70°)31.5 km/h38.9 km/hScattered Clouds
12:48 PM28 °C23 °C74 %1012.5 hPa16.1 kmENE (60°)33.3 km/h44.4 km/hMostly Cloudy
12:55 PM28.4 °C22.1 °C68 %1012.5 hPa16.1 kmENE (60°)35.2 km/hMostly Cloudy
12:58 PM29 °C22 °C66 %1012.5 hPa16.1 kmENE (60°)33.3 km/hScattered Clouds
1:13 PM29 °C22 °C66 %1012.2 hPa16.1 kmNE (50°)31.5 km/hMostly Cloudy
1:15 PM28 °C22 °C70 %1012.2 hPa16.1 kmENE (60°)33.3 km/hScattered Clouds
1:55 PM28.3 °C22.2 °C69 %1011.9 hPa16.1 kmNE (50°)33.3 km/hPartly Cloudy
2:07 PM28 °C22 °C70 %1011.9 hPa16.1 kmNE (50°)35.2 km/hMostly Cloudy
2:09 PM28 °C22 °C70 %1011.5 hPa16.1 kmNE (50°)29.6 km/hScattered Clouds
2:14 PM28 °C22 °C70 %1011.5 hPa16.1 kmENE (60°)31.5 km/hMostly Cloudy
2:37 PM28 °C21 °C66 %1011.2 hPa16.1 kmENE (60°)35.2 km/hScattered Clouds
2:55 PM28.2 °C21.8 °C68 %1011.2 hPa16.1 kmENE (60°)33.3 km/hPartly Cloudy
3:55 PM28.1 °C22 °C69 %1010.8 hPa16.1 kmNE (50°)29.6 km/hScattered Clouds
4:02 PM28 °C22 °C70 %1011.2 hPa16.1 kmENE (60°)25.9 km/hMostly Cloudy
4:30 PM27 °C22 °C74 %1011.2 hPa16.1 kmENE (60°)27.8 km/hScattered Clouds
4:55 PM27.1 °C21.7 °C72 %1011.2 hPa16.1 kmENE (60°)27.8 km/hScattered Clouds
4:58 PM27 °C22 °C74 %1011.2 hPa16.1 kmENE (60°)25.9 km/hMostly Cloudy
4:59 PM27 °C21 °C70 %1011.2 hPa16.1 kmENE (60°)27.8 km/hScattered Clouds
5:55 PM25.9 °C21.4 °C76 %1011.5 hPa16.1 kmENE (60°)31.5 km/hScattered Clouds
6:02 PM26 °C22 °C78 %1011.5 hPa16.1 kmENE (60°)31.5 km/hMostly Cloudy
6:21 PM26 °C21 °C74 %1011.5 hPa16.1 kmENE (60°)33.3 km/hScattered Clouds
6:32 PM26 °C21 °C74 %1011.9 hPa16.1 kmENE (60°)27.8 km/hMostly Cloudy
6:34 PM26 °C21 °C74 %1011.9 hPa16.1 kmENE (60°)29.6 km/hScattered Clouds
6:55 PM25.5 °C20.9 °C76 %1011.9 hPa16.1 kmENE (60°)27.8 km/hPartly Cloudy
7:55 PM25.3 °C21.2 °C78 %1012.5 hPa16.1 kmNE (50°)29.6 km/hScattered Clouds
8:17 PM25 °C21 °C78 %1012.5 hPa16.1 kmENE (60°)29.6 km/hMostly Cloudy
8:23 PM25 °C21 °C78 %1012.5 hPa16.1 kmENE (60°)29.6 km/hScattered Clouds
8:46 PM26 °C22 °C78 %1012.9 hPa16.1 kmNE (50°)29.6 km/h38.9 km/hMostly Cloudy
8:47 PM26 °C22 °C78 %1012.9 hPa16.1 kmENE (60°)31.5 km/h38.9 km/hMostly Cloudy
8:48 PM26 °C22 °C78 %1012.9 hPa16.1 kmENE (60°)31.5 km/h38.9 km/hMostly Cloudy
8:55 PM25.6 °C21.6 °C78 %1012.9 hPa16.1 kmNE (50°)29.6 km/hMostly Cloudy
9:29 PM25 °C21 °C78 %1012.9 hPa16.1 kmENE (70°)25.9 km/hMostly Cloudy
9:55 PM25.3 °C21.7 °C80 %1012.9 hPa16.1 kmENE (60°)25.9 km/hMostly Cloudy
10:09 PM25 °C22 °C83 %1012.9 hPa16.1 kmENE (60°)25.9 km/hMostly Cloudy
10:55 PM25.1 °C21.7 °C81 %1012.2 hPa16.1 kmNE (50°)25.9 km/hMostly Cloudy
11:29 PM25 °C21 °C78 %1011.9 hPa16.1 kmENE (60°)27.8 km/hMostly Cloudy
11:55 PM25.1 °C21.2 °C79 %1011.9 hPa16.1 kmENE (60°)22.2 km/hMostly Cloudy
Hourly data recorded from PGUA, located 0 kilometers away from Tamuning, Guam







STORIES FROM OUR PARTNERS